QPF
0.03 0.04 0.05 0.06 0.04 0.02 0.01 0.01 0.01 0.02 0.02 0.02 0.02 0.02 0.02 0.01 0.01 0.01 0.02 0.03 0.02 0.02 0.02 0.03 0.04 0.04 0.04 0.05 0.05 0.05 0.07 0.06 0.06 0.06 0.06 0.07 0.08 0.07 0.09 0.12 0.13 0.14 0.13
0.04 0.04 0.05 0.04 0.02 0.01 0.01 0.01 0.01 0.01 0.01 0.01 0.01 0.01 0.02 0.02 0.02 0.03 0.04 0.04 0.03 0.03 0.02 0.02 0.03 0.03 0.03 0.04 0.05 0.04 0.06 0.07 0.07 0.07 0.06 0.06 0.09 0.13 0.12 0.16 0.15 0.14 0.14
0.12 0.08 0.06 0.03 0.01 0.01 0.01 0.02 0.02 0.01 0.01 0.01 0.02 0.02 0.02 0.02 0.03 0.04 0.04 0.04 0.04 0.03 0.01 0.02 0.03 0.03 0.03 0.04 0.05 0.05 0.04 0.04 0.06 0.08 0.07 0.05 0.05 0.09 0.12 0.17 0.25 0.21 0.17
0.03 0.02 0.02 0.01 0.01 0.01 0.01 0.02 0.02 0.01 0.01 0.01 0.01 0.01 0.01 0.01 0.02 0.02 0.03 0.03 0.03 0.03 0.02 0.02 0.03 0.03 0.04 0.04 0.04 0.03 0.04 0.05 0.06 0.06 0.06 0.06 0.05 0.04 0.09 0.14 0.22 0.21 0.17
0.01 0.02 0.02 0.02 0.01 0.01 0.01 0.01 0.01 0.01 0.01 0.00 0.01 0.01 0.01 0.01 0.01 0.01 0.02 0.02 0.02 0.02 0.02 0.03 0.03 0.03 0.03 0.04 0.03 0.03 0.04 0.04 0.06 0.06 0.06 0.07 0.07 0.05 0.06 0.08 0.14 0.16 0.14
0.02 0.02 0.02 0.01 0.01 0.01 0.01 0.02 0.02 0.01 0.00 0.00 0.01 0.01 0.01 0.01 0.01 0.01 0.02 0.01 0.02 0.03 0.04 0.04 0.04 0.03 0.03 0.03 0.02 0.03 0.05 0.06 0.06 0.07 0.09 0.07 0.07 0.07 0.06 0.06 0.06 0.10 0.11
0.02 0.02 0.01 0.01 0.01 0.00 0.01 0.01 0.01 0.00 0.01 0.01 0.01 0.01 0.01 0.01 0.01 0.02 0.01 0.01 0.01 0.01 0.03 0.04 0.05 0.04 0.03 0.03 0.03 0.03 0.04 0.07 0.08 0.10 0.09 0.08 0.08 0.09 0.09 0.09 0.08 0.09 0.11
0.02 0.01 0.01 0.00 0.01 0.01 0.01 0.00 0.00 0.00 0.01 0.00 0.01 0.01 0.01 0.01 0.01 0.02 0.01 0.01 0.01 0.01 0.02 0.03 0.03 0.03 0.03 0.03 0.03 0.02 0.02 0.03 0.04 0.08 0.12 0.10 0.10 0.10 0.11 0.12 0.12 0.12 0.12
0.02 0.02 0.01 0.01 0.01 0.01 0.01 0.00 0.00 0.00 0.01 0.01 0.00 0.00 0.00 0.01 0.01 0.02 0.01 0.01 0.02 0.02 0.01 0.01 0.02 0.02 0.02 0.02 0.02 0.01 0.01 0.01 0.02 0.03 0.07 0.10 0.08 0.08 0.10 0.10 0.12 0.14 0.10
0.01 0.02 0.02 0.02 0.01 0.01 0.01 0.00 0.00 0.01 0.01 0.01 0.00 0.00 0.00 0.01 0.01 0.01 0.01 0.01 0.01 0.01 0.01 0.02 0.02 0.02 0.03 0.03 0.02 0.01 0.01 0.01 0.01 0.02 0.03 0.05 0.06 0.06 0.08 0.09 0.09 0.10 0.09
0.02 0.02 0.02 0.02 0.01 0.01 0.00 0.01 0.01 0.01 0.01 0.01 0.00 0.01 0.01 0.01 0.01 0.01 0.01 0.01 0.01 0.01 0.01 0.01 0.01 0.01 0.02 0.02 0.02 0.02 0.02 0.02 0.01 0.01 0.02 0.04 0.06 0.06 0.06 0.07 0.07 0.08 0.08
0.02 0.02 0.02 0.05 0.02 0.01 0.00 0.01 0.01 0.01 0.01 0.01 0.01 0.01 0.01 0.01 0.01 0.01 0.01 0.00 0.00 0.00 0.00 0.01 0.01 0.01 0.01 0.01 0.01 0.01 0.02 0.02 0.02 0.02 0.01 0.02 0.02 0.03 0.06 0.06 0.07 0.07 0.06
0.02 0.02 0.02 0.02 0.01 0.01 0.01 0.00 0.00 0.00 0.01 0.01 0.01 0.01 0.01 0.01 0.01 0.00 0.00 0.00 0.00 0.00 0.00 0.01 0.01 0.01 0.02 0.02 0.02 0.02 0.02 0.02 0.02 0.02 0.02 0.02 0.02 0.02 0.04 0.05 0.04 0.05 0.05
0.02 0.01 0.03 0.04 0.02 0.01 0.01 0.01 0.00 0.01 0.01 0.00 0.00 0.00 0.00 0.00 0.00 0.00 0.00 0.00 0.00 0.01 0.01 0.01 0.01 0.01 0.01 0.02 0.03 0.03 0.03 0.02 0.02 0.02 0.03 0.03 0.03 0.03 0.04 0.05 0.04 0.04 0.04
0.02 0.02 0.01 0.02 0.02 0.01 0.01 0.01 0.01 0.01 0.00 0.00 0.00 0.00 0.00 0.01 0.00 0.01 0.01 0.01 0.01 0.01 0.01 0.00 0.00 0.01 0.01 0.02 0.03 0.03 0.03 0.04 0.03 0.03 0.04 0.03 0.04 0.03 0.04 0.04 0.04 0.04 0.04
0.02 0.02 0.01 0.01 0.01 0.01 0.01 0.01 0.01 0.01 0.00 0.00 0.00 0.00 0.01 0.01 0.01 0.01 0.02 0.02 0.01 0.01 0.01 0.01 0.01 0.01 0.05 0.09 0.09 0.08 0.07 0.07 0.07 0.05 0.04 0.04 0.05 0.05 0.05 0.05 0.04 0.03 0.03
0.01 0.01 0.01 0.01 0.02 0.01 0.01 0.01 0.01 0.01 0.01 0.01 0.01 0.00 0.00 0.00 0.01 0.01 0.01 0.02 0.02 0.02 0.02 0.01 0.01 0.01 0.03 0.06 0.07 0.07 0.08 0.08 0.09 0.08 0.06 0.05 0.05 0.07 0.06 0.06 0.04 0.03 0.02
0.02 0.02 0.02 0.01 0.01 0.01 0.01 0.01 0.01 0.01 0.01 0.01 0.01 0.01 0.00 0.01 0.01 0.02 0.02 0.02 0.01 0.01 0.01 0.01 0.01 0.02 0.02 0.03 0.02 0.02 0.02 0.02 0.03 0.04 0.04 0.05 0.05 0.06 0.07 0.07 0.04 0.04 0.02
0.02 0.03 0.03 0.04 0.01 0.01 0.01 0.01 0.01 0.01 0.01 0.01 0.01 0.01 0.02 0.01 0.02 0.02 0.02 0.02 0.01 0.01 0.03 0.03 0.01 0.01 0.01 0.02 0.02 0.02 0.02 0.02 0.02 0.02 0.03 0.04 0.03 0.05 0.06 0.05 0.04 0.03 0.03
0.04 0.05 0.04 0.05 0.03 0.03 0.02 0.02 0.01 0.02 0.02 0.02 0.03 0.03 0.03 0.03 0.02 0.03 0.03 0.03 0.02 0.02 0.03 0.03 0.02 0.02 0.02 0.02 0.03 0.02 0.02 0.01 0.01 0.01 0.01 0.02 0.02 0.03 0.04 0.04 0.03 0.04 0.04
0.05 0.04 0.04 0.04 0.04 0.04 0.03 0.03 0.03 0.03 0.02 0.03 0.03 0.04 0.04 0.04 0.04 0.05 0.05 0.04 0.03 0.03 0.03 0.03 0.03 0.03 0.03 0.04 0.04 0.04 0.03 0.02 0.01 0.00 0.00 0.01 0.02 0.02 0.03 0.04 0.03 0.03 0.04
0.06 0.05 0.06 0.04 0.02 0.04 0.04 0.03 0.03 0.04 0.05 0.05 0.05 0.04 0.04 0.04 0.04 0.04 0.04 0.04 0.02 0.02 0.02 0.02 0.03 0.04 0.06 0.05 0.03 0.02 0.02 0.01 0.01 0.01 0.00 0.01 0.01 0.01 0.01 0.01 0.02 0.02 0.03
0.03 0.05 0.08 0.07 0.03 0.05 0.05 0.05 0.03 0.04 0.06 0.07 0.05 0.03 0.03 0.02 0.03 0.03 0.03 0.03 0.03 0.02 0.02 0.02 0.01 0.02 0.03 0.02 0.02 0.02 0.02 0.01 0.01 0.00 0.00 0.00 0.01 0.01 0.01 0.02 0.02 0.02 0.02
0.01 0.03 0.08 0.08 0.04 0.05 0.07 0.07 0.05 0.05 0.04 0.04 0.04 0.02 0.02 0.03 0.03 0.04 0.04 0.04 0.04 0.03 0.03 0.03 0.03 0.03 0.03 0.03 0.03 0.02 0.02 0.02 0.01 0.01 0.01 0.01 0.01 0.01 0.02 0.02 0.02 0.01 0.01
0.01 0.01 0.04 0.06 0.04 0.05 0.07 0.07 0.07 0.06 0.04 0.03 0.03 0.03 0.03 0.03 0.04 0.04 0.04 0.04 0.04 0.05 0.05 0.05 0.05 0.04 0.04 0.05 0.05 0.03 0.02 0.02 0.02 0.02 0.02 0.01 0.02 0.02 0.02 0.02 0.01 0.01 0.01
0.01 0.01 0.02 0.03 0.03 0.03 0.03 0.05 0.08 0.08 0.05 0.03 0.03 0.03 0.03 0.03 0.04 0.05 0.06 0.05 0.04 0.05 0.05 0.06 0.06 0.06 0.07 0.07 0.04 0.03 0.02 0.03 0.03 0.02 0.02 0.01 0.01 0.01 0.01 0.02 0.02 0.02 0.02
MSLP
1005.15 1005.54 1005.78 1005.81 1005.64 1005.31 1004.86 1004.41 1004.03 1003.80 1003.75 1003.89 1004.17 1004.56 1004.99 1005.42 1005.82 1006.21 1006.61 1007.05 1007.59 1008.26 1009.06 1009.99 1011.01 1012.08 1013.16 1014.21 1015.22 1016.16 1017.04 1017.86 1018.60 1019.26 1019.81 1020.22 1020.47 1020.55 1020.46 1020.24 1019.94 1019.63 1019.36
1005.30 1005.75 1006.02 1006.09 1005.95 1005.65 1005.27 1004.90 1004.65 1004.56 1004.67 1004.95 1005.35 1005.81 1006.25 1006.64 1006.96 1007.23 1007.50 1007.82 1008.25 1008.84 1009.58 1010.48 1011.48 1012.53 1013.58 1014.60 1015.56 1016.45 1017.28 1018.05 1018.78 1019.43 1019.99 1020.43 1020.72 1020.84 1020.78 1020.59 1020.32 1020.01 1019.74
1005.29 1005.80 1006.14 1006.27 1006.18 1005.93 1005.61 1005.32 1005.16 1005.18 1005.39 1005.78 1006.27 1006.78 1007.26 1007.64 1007.92 1008.14 1008.34 1008.60 1008.97 1009.51 1010.21 1011.06 1012.02 1013.03 1014.02 1014.97 1015.84 1016.65 1017.41 1018.12 1018.79 1019.42 1019.98 1020.45 1020.78 1020.95 1020.97 1020.85 1020.63 1020.38 1020.13
1005.08 1005.69 1006.12 1006.34 1006.33 1006.16 1005.91 1005.68 1005.58 1005.66 1005.94 1006.38 1006.92 1007.49 1008.00 1008.40 1008.70 1008.92 1009.12 1009.37 1009.73 1010.25 1010.92 1011.74 1012.65 1013.58 1014.49 1015.35 1016.12 1016.82 1017.48 1018.10 1018.70 1019.29 1019.84 1020.31 1020.68 1020.92 1021.02 1020.99 1020.86 1020.69 1020.52
1004.71 1005.42 1005.97 1006.31 1006.42 1006.35 1006.17 1006.00 1005.94 1006.05 1006.35 1006.81 1007.38 1007.97 1008.52 1008.96 1009.31 1009.58 1009.83 1010.11 1010.50 1011.03 1011.69 1012.47 1013.32 1014.18 1015.00 1015.74 1016.40 1017.00 1017.54 1018.06 1018.58 1019.11 1019.62 1020.09 1020.48 1020.78 1020.95 1021.01 1020.99 1020.92 1020.84
1004.22 1005.04 1005.73 1006.21 1006.46 1006.51 1006.43 1006.32 1006.29 1006.40 1006.69 1007.14 1007.70 1008.30 1008.87 1009.36 1009.77 1010.11 1010.43 1010.78 1011.22 1011.76 1012.43 1013.18 1013.97 1014.75 1015.48 1016.12 1016.68 1017.16 1017.60 1018.03 1018.46 1018.92 1019.38 1019.82 1020.22 1020.54 1020.78 1020.92 1021.00 1021.04 1021.05
1003.70 1004.61 1005.44 1006.07 1006.47 1006.65 1006.68 1006.64 1006.64 1006.75 1007.01 1007.43 1007.96 1008.54 1009.12 1009.65 1010.11 1010.52 1010.91 1011.33 1011.81 1012.38 1013.04 1013.76 1014.50 1015.22 1015.87 1016.43 1016.90 1017.30 1017.65 1017.99 1018.35 1018.73 1019.12 1019.52 1019.90 1020.23 1020.50 1020.71 1020.88 1021.02 1021.13
1003.20 1004.20 1005.14 1005.92 1006.47 1006.78 1006.92 1006.95 1006.99 1007.10 1007.34 1007.71 1008.19 1008.74 1009.31 1009.85 1010.34 1010.80 1011.25 1011.71 1012.23 1012.81 1013.45 1014.14 1014.83 1015.49 1016.08 1016.58 1017.00 1017.34 1017.64 1017.93 1018.22 1018.53 1018.86 1019.20 1019.53 1019.85 1020.13 1020.39 1020.62 1020.85 1021.07
1002.80 1003.85 1004.88 1005.77 1006.45 1006.89 1007.13 1007.25 1007.33 1007.46 1007.68 1008.01 1008.45 1008.95 1009.48 1010.00 1010.50 1010.97 1011.43 1011.91 1012.42 1012.99 1013.61 1014.26 1014.90 1015.52 1016.07 1016.54 1016.94 1017.26 1017.54 1017.79 1018.03 1018.29 1018.56 1018.84 1019.12 1019.41 1019.68 1019.97 1020.25 1020.55 1020.87
1002.53 1003.60 1004.68 1005.64 1006.40 1006.94 1007.29 1007.49 1007.64 1007.80 1008.02 1008.33 1008.72 1009.17 1009.66 1010.14 1010.60 1011.05 1011.49 1011.95 1012.43 1012.96 1013.53 1014.13 1014.74 1015.31 1015.84 1016.31 1016.70 1017.04 1017.32 1017.56 1017.79 1018.01 1018.23 1018.45 1018.69 1018.93 1019.19 1019.48 1019.80 1020.17 1020.57
1002.39 1003.44 1004.51 1005.49 1006.31 1006.92 1007.35 1007.65 1007.87 1008.08 1008.33 1008.64 1009.01 1009.42 1009.85 1010.28 1010.70 1011.09 1011.48 1011.88 1012.31 1012.78 1013.29 1013.84 1014.40 1014.95 1015.47 1015.94 1016.35 1016.70 1017.00 1017.26 1017.49 1017.69 1017.88 1018.06 1018.25 1018.45 1018.69 1018.98 1019.33 1019.74 1020.21
1002.36 1003.36 1004.38 1005.33 1006.15 1006.80 1007.30 1007.69 1007.99 1008.28 1008.58 1008.92 1009.29 1009.68 1010.07 1010.45 1010.81 1011.14 1011.47 1011.80 1012.17 1012.57 1013.02 1013.52 1014.03 1014.55 1015.06 1015.53 1015.96 1016.34 1016.66 1016.94 1017.17 1017.36 1017.53 1017.69 1017.85 1018.03 1018.25 1018.53 1018.90 1019.35 1019.86
1002.39 1003.30 1004.23 1005.12 1005.91 1006.58 1007.13 1007.59 1008.00 1008.38 1008.76 1009.15 1009.55 1009.94 1010.31 1010.65 1010.96 1011.24 1011.51 1011.79 1012.09 1012.45 1012.84 1013.29 1013.76 1014.25 1014.74 1015.21 1015.64 1016.02 1016.36 1016.65 1016.88 1017.08 1017.24 1017.38 1017.52 1017.69 1017.90 1018.18 1018.55 1019.01 1019.55
1002.42 1003.23 1004.06 1004.86 1005.59 1006.25 1006.84 1007.38 1007.87 1008.36 1008.83 1009.30 1009.75 1010.17 1010.55 1010.88 1011.16 1011.41 1011.65 1011.89 1012.16 1012.48 1012.84 1013.25 1013.69 1014.14 1014.60 1015.04 1015.46 1015.83 1016.16 1016.43 1016.67 1016.86 1017.02 1017.16 1017.30 1017.46 1017.67 1017.94 1018.31 1018.76 1019.29
1002.41 1003.11 1003.82 1004.53 1005.20 1005.84 1006.46 1007.06 1007.64 1008.23 1008.80 1009.36 1009.88 1010.35 1010.76 1011.10 1011.39 1011.64 1011.88 1012.12 1012.39 1012.69 1013.04 1013.42 1013.83 1014.26 1014.67 1015.07 1015.44 1015.77 1016.07 1016.32 1016.53 1016.72 1016.88 1017.02 1017.17 1017.33 1017.54 1017.81 1018.15 1018.57 1019.07
1002.33 1002.92 1003.53 1004.14 1004.75 1005.37 1006.01 1006.66 1007.33 1008.01 1008.68 1009.33 1009.92 1010.45 1010.91 1011.29 1011.61 1011.90 1012.16 1012.43 1012.72 1013.04 1013.39 1013.77 1014.16 1014.54 1014.91 1015.25 1015.55 1015.82 1016.06 1016.27 1016.46 1016.63 1016.78 1016.94 1017.10 1017.28 1017.49 1017.74 1018.05 1018.42 1018.84
1002.15 1002.66 1003.18 1003.72 1004.28 1004.88 1005.53 1006.23 1006.97 1007.73 1008.49 1009.21 1009.87 1010.47 1010.98 1011.41 1011.78 1012.11 1012.42 1012.74 1013.07 1013.42 1013.79 1014.17 1014.54 1014.89 1015.20 1015.47 1015.71 1015.90 1016.08 1016.23 1016.38 1016.54 1016.69 1016.86 1017.04 1017.23 1017.45 1017.69 1017.96 1018.26 1018.59
1001.90 1002.34 1002.79 1003.27 1003.80 1004.40 1005.06 1005.80 1006.59 1007.41 1008.22 1009.01 1009.73 1010.37 1010.93 1011.42 1011.84 1012.22 1012.59 1012.96 1013.34 1013.73 1014.12 1014.51 1014.86 1015.17 1015.43 1015.63 1015.79 1015.92 1016.03 1016.14 1016.26 1016.40 1016.56 1016.74 1016.94 1017.16 1017.37 1017.60 1017.82 1018.05 1018.28
1001.57 1001.97 1002.38 1002.83 1003.34 1003.92 1004.60 1005.36 1006.19 1007.05 1007.90 1008.73 1009.49 1010.18 1010.78 1011.30 1011.76 1012.19 1012.61 1013.02 1013.44 1013.86 1014.27 1014.65 1014.98 1015.26 1015.48 1015.63 1015.73 1015.80 1015.86 1015.93 1016.04 1016.17 1016.35 1016.55 1016.78 1017.01 1017.23 1017.44 1017.62 1017.78 1017.93
1001.18 1001.55 1001.94 1002.37 1002.87 1003.46 1004.14 1004.91 1005.76 1006.64 1007.52 1008.37 1009.16 1009.87 1010.50 1011.05 1011.55 1012.01 1012.45 1012.89 1013.32 1013.75 1014.16 1014.54 1014.85 1015.10 1015.29 1015.40 1015.47 1015.51 1015.56 1015.62 1015.72 1015.87 1016.07 1016.30 1016.55 1016.80 1017.03 1017.22 1017.37 1017.48 1017.55
1000.75 1001.10 1001.47 1001.89 1002.38 1002.97 1003.65 1004.42 1005.26 1006.15 1007.05 1007.91 1008.72 1009.45 1010.10 1010.68 1011.20 1011.67 1012.13 1012.57 1013.00 1013.42 1013.81 1014.17 1014.46 1014.70 1014.86 1014.97 1015.04 1015.09 1015.14 1015.23 1015.35 1015.53 1015.76 1016.02 1016.29 1016.55 1016.78 1016.96 1017.09 1017.16 1017.18
1000.31 1000.63 1000.98 1001.38 1001.85 1002.42 1003.08 1003.84 1004.67 1005.56 1006.46 1007.33 1008.16 1008.92 1009.59 1010.19 1010.73 1011.21 1011.66 1012.09 1012.50 1012.89 1013.26 1013.59 1013.87 1014.09 1014.26 1014.39 1014.49 1014.57 1014.67 1014.80 1014.98 1015.20 1015.46 1015.74 1016.03 1016.30 1016.52 1016.70 1016.80 1016.85 1016.85
999.87 1000.16 1000.47 1000.83 1001.26 1001.79 1002.41 1003.14 1003.95 1004.83 1005.72 1006.62 1007.47 1008.25 1008.97 1009.59 1010.15 1010.64 1011.09 1011.50 1011.88 1012.24 1012.57 1012.87 1013.14 1013.37 1013.56 1013.73 1013.88 1014.03 1014.20 1014.40 1014.64 1014.90 1015.20 1015.50 1015.79 1016.06 1016.27 1016.43 1016.52 1016.55 1016.54
999.48 999.71 999.96 1000.26 1000.62 1001.08 1001.64 1002.32 1003.09 1003.94 1004.84 1005.75 1006.63 1007.46 1008.21 1008.89 1009.47 1009.98 1010.43 1010.82 1011.18 1011.50 1011.81 1012.09 1012.35 1012.59 1012.83 1013.05 1013.28 1013.51 1013.76 1014.04 1014.34 1014.65 1014.97 1015.28 1015.57 1015.81 1016.00 1016.13 1016.20 1016.22 1016.20
999.20 999.34 999.51 999.71 999.97 1000.34 1000.81 1001.41 1002.12 1002.94 1003.82 1004.74 1005.66 1006.53 1007.34 1008.06 1008.69 1009.23 1009.69 1010.08 1010.42 1010.72 1011.00 1011.27 1011.54 1011.81 1012.09 1012.38 1012.68 1013.00 1013.34 1013.69 1014.04 1014.39 1014.72 1015.03 1015.29 1015.50 1015.66 1015.75 1015.79 1015.79 1015.76
999.07 999.12 999.18 999.26 999.40 999.64 1000.00 1000.49 1001.13 1001.88 1002.74 1003.65 1004.59 1005.50 1006.36 1007.14 1007.82 1008.40 1008.88 1009.27 1009.61 1009.90 1010.17 1010.44 1010.71 1011.01 1011.33 1011.68 1012.06 1012.45 1012.86 1013.27 1013.66 1014.03 1014.36 1014.64 1014.87 1015.04 1015.14 1015.19 1015.19 1015.16 1015.11
Thickness
5811 5811 5808 5806 5801 5798 5795 5792 5789 5787 5785 5781 5777 5774 5771 5771 5771 5771 5770 5768 5766 5765 5764 5763 5761 5759 5757 5755 5754 5751 5749 5748 5748 5744 5740 5740 5742 5741 5740 5740 5739 5738 5737
5808 5807 5806 5805 5801 5798 5796 5794 5791 5788 5786 5783 5781 5777 5774 5772 5772 5771 5770 5768 5766 5765 5764 5762 5760 5759 5756 5754 5753 5751 5748 5747 5748 5742 5735 5730 5732 5736 5739 5737 5736 5736 5735
5810 5808 5806 5804 5802 5800 5798 5797 5793 5790 5788 5786 5782 5778 5774 5772 5769 5768 5768 5768 5767 5766 5764 5762 5761 5759 5757 5754 5753 5751 5748 5745 5746 5745 5738 5729 5725 5728 5732 5734 5734 5734 5733
5814 5811 5808 5805 5804 5802 5801 5798 5795 5792 5790 5787 5782 5777 5771 5767 5767 5768 5768 5768 5767 5765 5764 5763 5761 5759 5757 5755 5753 5752 5750 5747 5743 5743 5743 5740 5735 5727 5723 5727 5730 5731 5730
5818 5814 5812 5810 5808 5806 5803 5799 5796 5793 5791 5788 5784 5779 5774 5771 5770 5769 5767 5766 5766 5765 5765 5763 5761 5759 5757 5755 5753 5751 5750 5748 5745 5742 5741 5738 5735 5732 5724 5720 5722 5724 5725
5821 5818 5816 5812 5808 5807 5804 5800 5796 5793 5791 5788 5785 5780 5776 5772 5769 5767 5765 5765 5764 5764 5763 5762 5760 5758 5757 5755 5753 5752 5750 5748 5746 5744 5741 5737 5733 5729 5725 5720 5718 5717 5719
5821 5817 5814 5810 5808 5805 5803 5800 5796 5792 5790 5787 5784 5781 5778 5775 5771 5769 5766 5764 5762 5761 5761 5761 5759 5757 5756 5754 5753 5751 5749 5748 5745 5743 5741 5739 5736 5733 5728 5722 5717 5715 5715
5822 5820 5818 5814 5810 5807 5804 5800 5796 5792 5790 5787 5784 5782 5779 5776 5773 5771 5768 5765 5763 5762 5762 5760 5758 5757 5755 5754 5751 5749 5747 5746 5744 5742 5740 5737 5735 5733 5729 5724 5717 5711 5708
5822 5821 5819 5816 5813 5809 5805 5802 5798 5794 5791 5788 5785 5782 5779 5776 5773 5771 5769 5766 5765 5763 5762 5760 5757 5756 5754 5752 5750 5747 5745 5744 5742 5740 5738 5736 5734 5732 5730 5726 5721 5713 5704
5820 5819 5818 5817 5815 5812 5808 5804 5800 5796 5792 5789 5786 5783 5779 5777 5774 5771 5768 5766 5764 5762 5760 5758 5756 5754 5752 5750 5748 5746 5744 5741 5739 5738 5735 5733 5732 5730 5727 5724 5721 5717 5710
5819 5818 5818 5817 5815 5812 5807 5803 5799 5795 5791 5788 5785 5782 5779 5776 5773 5770 5768 5765 5763 5761 5758 5756 5754 5752 5750 5748 5746 5743 5741 5739 5737 5735 5733 5731 5729 5726 5724 5721 5718 5714 5710
5821 5819 5817 5813 5811 5808 5805 5802 5799 5795 5791 5789 5784 5781 5778 5775 5772 5769 5766 5764 5761 5759 5757 5755 5752 5750 5748 5745 5743 5741 5739 5736 5734 5732 5730 5728 5727 5724 5721 5718 5714 5711 5708
5816 5815 5812 5809 5807 5806 5804 5801 5798 5795 5792 5788 5783 5779 5776 5773 5770 5767 5765 5762 5759 5757 5755 5752 5749 5747 5745 5743 5741 5738 5736 5734 5732 5730 5727 5725 5723 5719 5717 5714 5710 5707 5704
5811 5809 5807 5806 5805 5804 5802 5800 5797 5795 5792 5786 5781 5777 5774 5772 5768 5766 5762 5759 5757 5754 5751 5748 5746 5744 5742 5740 5738 5736 5733 5731 5729 5727 5725 5722 5720 5716 5713 5710 5706 5703 5698
5805 5804 5803 5802 5801 5800 5799 5797 5795 5793 5790 5785 5780 5776 5773 5770 5767 5763 5760 5757 5754 5752 5748 5745 5743 5741 5739 5737 5735 5733 5730 5726 5724 5722 5721 5720 5718 5715 5712 5708 5703 5700 5694
5801 5801 5800 5799 5797 5796 5795 5794 5792 5790 5787 5782 5778 5775 5771 5767 5764 5761 5757 5753 5750 5748 5745 5741 5739 5737 5736 5735 5733 5730 5726 5723 5720 5718 5716 5716 5714 5712 5709 5705 5702 5699 5693
5796 5797 5797 5796 5795 5794 5794 5791 5790 5788 5783 5779 5776 5772 5769 5765 5761 5759 5754 5750 5747 5743 5740 5738 5735 5733 5732 5731 5729 5727 5723 5719 5716 5714 5712 5711 5710 5707 5704 5700 5698 5695 5693
5793 5793 5793 5793 5794 5794 5792 5789 5787 5783 5779 5775 5772 5770 5766 5762 5759 5755 5751 5748 5744 5740 5737 5734 5732 5730 5729 5728 5725 5723 5719 5716 5713 5711 5709 5706 5704 5703 5699 5696 5692 5690 5687
5791 5791 5792 5791 5790 5789 5787 5784 5780 5778 5774 5771 5769 5767 5764 5760 5756 5751 5748 5745 5741 5737 5734 5732 5729 5726 5725 5723 5721 5718 5714 5711 5709 5708 5706 5703 5700 5698 5695 5691 5687 5684 5682
5786 5785 5786 5784 5781 5781 5782 5777 5773 5771 5769 5768 5766 5764 5761 5757 5753 5749 5746 5742 5739 5735 5731 5728 5726 5723 5720 5718 5715 5712 5709 5705 5703 5701 5700 5699 5696 5693 5690 5686 5682 5678 5676
5778 5779 5777 5774 5774 5774 5773 5768 5767 5765 5765 5764 5762 5759 5757 5753 5750 5746 5742 5739 5735 5730 5726 5723 5721 5719 5716 5713 5710 5707 5703 5700 5697 5695 5694 5693 5691 5688 5685 5682 5679 5677 5673
5768 5768 5767 5765 5767 5767 5765 5762 5759 5761 5760 5758 5754 5753 5751 5749 5746 5741 5737 5735 5731 5725 5721 5717 5714 5712 5711 5708 5705 5702 5699 5697 5693 5691 5689 5687 5685 5683 5680 5677 5675 5672 5668
5760 5760 5758 5757 5758 5758 5757 5753 5753 5754 5753 5749 5746 5745 5744 5742 5739 5735 5731 5728 5725 5720 5715 5711 5708 5706 5704 5703 5701 5698 5695 5692 5689 5687 5685 5683 5680 5677 5674 5672 5669 5665 5661
5752 5751 5749 5747 5747 5748 5748 5747 5747 5747 5745 5741 5739 5738 5736 5734 5732 5729 5726 5722 5718 5714 5710 5706 5702 5700 5698 5695 5694 5692 5689 5686 5683 5680 5678 5676 5673 5670 5668 5665 5662 5659 5656
5744 5743 5742 5740 5739 5739 5739 5740 5739 5738 5736 5733 5731 5729 5728 5726 5723 5720 5718 5717 5715 5712 5708 5704 5700 5695 5692 5691 5689 5686 5683 5680 5677 5674 5670 5666 5663 5661 5659 5657 5655 5652 5649
5735 5734 5735 5734 5733 5732 5731 5732 5732 5731 5728 5724 5722 5721 5719 5717 5714 5711 5708 5709 5708 5706 5704 5701 5696 5694 5691 5686 5683 5681 5678 5674 5670 5666 5662 5659 5657 5655 5653 5651 5648 5645 5642